QPF
0.00 0.00 0.01 0.01 0.00 0.01 0.01 0.01 0.01 0.00 0.00 0.00 0.00 0.00 0.00 0.00 0.00 0.00 0.00 0.00 0.00 0.00 0.00 0.01 0.01 0.01 0.00 0.00 0.00 0.00 0.00 0.00 0.00 0.00 0.01 0.01 0.01 0.02 0.02 0.02 0.02 0.02 0.01
0.00 0.00 0.01 0.01 0.00 0.00 0.01 0.01 0.01 0.01 0.00 0.00 0.00 0.00 0.00 0.00 0.00 0.00 0.00 0.00 0.00 0.00 0.00 0.00 0.01 0.00 0.00 0.00 0.00 0.00 0.00 0.01 0.01 0.01 0.01 0.01 0.02 0.02 0.01 0.01 0.02 0.01 0.01
0.00 0.00 0.01 0.01 0.00 0.00 0.00 0.01 0.01 0.01 0.00 0.00 0.00 0.00 0.00 0.00 0.00 0.00 0.00 0.00 0.00 0.00 0.00 0.00 0.00 0.00 0.00 0.00 0.00 0.00 0.00 0.01 0.02 0.03 0.03 0.02 0.01 0.02 0.01 0.01 0.01 0.01 0.01
0.00 0.00 0.00 0.00 0.00 0.00 0.00 0.00 0.00 0.00 0.00 0.00 0.00 0.00 0.00 0.00 0.00 0.00 0.00 0.00 0.00 0.00 0.00 0.00 0.00 0.00 0.00 0.01 0.01 0.01 0.01 0.02 0.02 0.03 0.03 0.01 0.01 0.02 0.03 0.02 0.01 0.01 0.01
0.01 0.00 0.00 0.00 0.00 0.00 0.00 0.00 0.00 0.00 0.00 0.00 0.00 0.00 0.00 0.00 0.00 0.00 0.00 0.00 0.00 0.00 0.00 0.00 0.00 0.00 0.01 0.01 0.01 0.01 0.02 0.03 0.02 0.02 0.02 0.01 0.02 0.03 0.02 0.01 0.01 0.01 0.01
0.02 0.01 0.01 0.00 0.00 0.00 0.00 0.00 0.00 0.00 0.00 0.00 0.00 0.00 0.00 0.00 0.00 0.00 0.00 0.00 0.00 0.00 0.00 0.00 0.00 0.00 0.01 0.01 0.02 0.03 0.04 0.03 0.02 0.02 0.02 0.01 0.02 0.02 0.03 0.02 0.02 0.01 0.01
0.03 0.02 0.01 0.01 0.00 0.00 0.00 0.00 0.00 0.00 0.00 0.00 0.00 0.00 0.00 0.00 0.00 0.00 0.00 0.00 0.00 0.00 0.00 0.00 0.00 0.00 0.00 0.01 0.02 0.03 0.05 0.05 0.03 0.01 0.01 0.01 0.02 0.02 0.03 0.04 0.02 0.01 0.01
0.02 0.02 0.02 0.01 0.01 0.01 0.01 0.01 0.00 0.00 0.00 0.00 0.00 0.00 0.00 0.00 0.00 0.00 0.00 0.00 0.01 0.01 0.01 0.00 0.00 0.00 0.00 0.01 0.02 0.02 0.04 0.05 0.03 0.03 0.01 0.01 0.02 0.02 0.03 0.03 0.02 0.02 0.02
0.02 0.03 0.03 0.03 0.02 0.01 0.01 0.01 0.01 0.01 0.00 0.00 0.00 0.01 0.01 0.01 0.01 0.01 0.01 0.01 0.01 0.01 0.01 0.01 0.01 0.01 0.01 0.01 0.01 0.02 0.04 0.05 0.05 0.06 0.02 0.03 0.02 0.01 0.02 0.03 0.02 0.03 0.03
0.04 0.05 0.05 0.05 0.04 0.03 0.03 0.03 0.03 0.02 0.02 0.02 0.01 0.01 0.01 0.01 0.01 0.01 0.01 0.01 0.01 0.01 0.01 0.01 0.01 0.01 0.01 0.01 0.01 0.02 0.04 0.04 0.04 0.03 0.05 0.04 0.03 0.03 0.03 0.03 0.02 0.02 0.02
0.05 0.06 0.08 0.08 0.07 0.05 0.05 0.05 0.05 0.04 0.04 0.03 0.03 0.02 0.02 0.02 0.01 0.01 0.01 0.01 0.02 0.02 0.02 0.02 0.02 0.02 0.01 0.01 0.02 0.02 0.02 0.03 0.02 0.03 0.04 0.02 0.03 0.06 0.07 0.06 0.04 0.04 0.04
0.06 0.08 0.10 0.12 0.15 0.11 0.09 0.08 0.08 0.07 0.06 0.06 0.05 0.05 0.05 0.04 0.02 0.02 0.02 0.01 0.02 0.02 0.02 0.02 0.02 0.02 0.02 0.02 0.02 0.01 0.02 0.02 0.02 0.03 0.03 0.02 0.05 0.08 0.10 0.09 0.07 0.06 0.07
0.07 0.06 0.08 0.11 0.17 0.17 0.14 0.10 0.08 0.08 0.08 0.06 0.05 0.04 0.04 0.03 0.02 0.01 0.02 0.02 0.02 0.02 0.03 0.03 0.02 0.02 0.03 0.04 0.03 0.02 0.01 0.01 0.01 0.02 0.03 0.03 0.06 0.09 0.12 0.11 0.10 0.08 0.10
0.07 0.07 0.07 0.08 0.10 0.11 0.12 0.12 0.11 0.10 0.09 0.07 0.05 0.03 0.02 0.03 0.02 0.02 0.03 0.03 0.04 0.05 0.06 0.05 0.05 0.05 0.04 0.03 0.03 0.02 0.02 0.01 0.01 0.03 0.03 0.02 0.05 0.09 0.14 0.13 0.10 0.10 0.11
0.05 0.06 0.07 0.07 0.09 0.11 0.14 0.16 0.14 0.12 0.10 0.09 0.07 0.05 0.04 0.04 0.03 0.03 0.02 0.04 0.05 0.06 0.07 0.08 0.07 0.06 0.06 0.04 0.03 0.02 0.03 0.03 0.03 0.03 0.04 0.03 0.04 0.06 0.10 0.14 0.12 0.13 0.14
0.04 0.05 0.06 0.07 0.07 0.10 0.15 0.17 0.16 0.13 0.11 0.10 0.08 0.06 0.05 0.05 0.06 0.06 0.06 0.06 0.07 0.08 0.09 0.09 0.08 0.07 0.08 0.07 0.04 0.04 0.04 0.05 0.04 0.04 0.05 0.04 0.04 0.06 0.08 0.12 0.14 0.16 0.17
0.03 0.03 0.05 0.07 0.07 0.09 0.14 0.21 0.19 0.15 0.11 0.09 0.07 0.05 0.04 0.06 0.08 0.09 0.09 0.09 0.11 0.11 0.09 0.08 0.08 0.10 0.10 0.08 0.06 0.05 0.04 0.05 0.05 0.05 0.06 0.07 0.08 0.07 0.06 0.08 0.11 0.13 0.15
0.03 0.04 0.06 0.06 0.07 0.09 0.13 0.19 0.22 0.16 0.11 0.08 0.06 0.05 0.05 0.06 0.08 0.10 0.11 0.11 0.11 0.10 0.09 0.09 0.09 0.09 0.09 0.08 0.06 0.05 0.05 0.05 0.05 0.06 0.06 0.07 0.09 0.09 0.07 0.07 0.08 0.11 0.15
0.03 0.03 0.04 0.04 0.05 0.07 0.11 0.11 0.14 0.17 0.11 0.08 0.07 0.06 0.06 0.06 0.08 0.11 0.13 0.13 0.10 0.10 0.10 0.09 0.09 0.08 0.08 0.07 0.05 0.05 0.05 0.05 0.06 0.05 0.05 0.06 0.07 0.10 0.11 0.10 0.10 0.12 0.16
0.03 0.03 0.02 0.03 0.03 0.06 0.08 0.07 0.08 0.08 0.07 0.07 0.07 0.06 0.06 0.06 0.07 0.09 0.10 0.11 0.10 0.09 0.09 0.09 0.08 0.07 0.06 0.07 0.06 0.05 0.04 0.04 0.04 0.04 0.04 0.05 0.05 0.05 0.08 0.10 0.13 0.14 0.17
0.02 0.02 0.02 0.03 0.04 0.05 0.08 0.07 0.08 0.12 0.11 0.11 0.11 0.10 0.09 0.08 0.07 0.06 0.08 0.10 0.10 0.09 0.09 0.07 0.07 0.07 0.06 0.06 0.07 0.05 0.03 0.03 0.02 0.02 0.03 0.03 0.03 0.04 0.06 0.08 0.11 0.13 0.18
0.02 0.02 0.02 0.02 0.04 0.05 0.07 0.07 0.10 0.15 0.15 0.14 0.12 0.11 0.11 0.10 0.09 0.09 0.09 0.09 0.10 0.08 0.07 0.07 0.06 0.06 0.06 0.07 0.09 0.08 0.05 0.04 0.03 0.02 0.02 0.02 0.03 0.04 0.04 0.05 0.07 0.10 0.14
0.03 0.03 0.02 0.03 0.05 0.05 0.05 0.06 0.07 0.11 0.15 0.16 0.10 0.10 0.11 0.11 0.11 0.09 0.08 0.07 0.08 0.07 0.07 0.07 0.07 0.08 0.08 0.07 0.08 0.09 0.09 0.08 0.05 0.03 0.02 0.02 0.02 0.03 0.04 0.05 0.06 0.08 0.11
0.03 0.03 0.03 0.03 0.03 0.04 0.04 0.06 0.07 0.09 0.10 0.10 0.07 0.07 0.08 0.08 0.07 0.07 0.07 0.06 0.06 0.05 0.05 0.06 0.07 0.07 0.08 0.07 0.07 0.07 0.08 0.09 0.09 0.06 0.04 0.02 0.03 0.04 0.05 0.06 0.06 0.09 0.12
0.05 0.06 0.04 0.03 0.03 0.04 0.04 0.05 0.06 0.07 0.07 0.06 0.04 0.05 0.05 0.05 0.05 0.06 0.06 0.06 0.06 0.05 0.05 0.06 0.06 0.06 0.07 0.07 0.08 0.08 0.07 0.06 0.07 0.07 0.05 0.04 0.04 0.06 0.08 0.09 0.12 0.14 0.16
0.05 0.05 0.03 0.02 0.02 0.03 0.04 0.03 0.04 0.04 0.05 0.05 0.04 0.04 0.04 0.03 0.03 0.03 0.04 0.05 0.05 0.04 0.03 0.03 0.04 0.04 0.05 0.06 0.07 0.07 0.07 0.07 0.08 0.09 0.09 0.07 0.09 0.10 0.10 0.11 0.13 0.15 0.15
MSLP
1013.32 1013.38 1013.59 1013.93 1014.35 1014.77 1015.14 1015.42 1015.62 1015.76 1015.89 1016.06 1016.29 1016.61 1016.98 1017.39 1017.77 1018.08 1018.29 1018.41 1018.45 1018.45 1018.46 1018.50 1018.58 1018.72 1018.88 1019.03 1019.16 1019.26 1019.32 1019.35 1019.40 1019.46 1019.57 1019.72 1019.89 1020.06 1020.22 1020.35 1020.43 1020.48 1020.50
1013.24 1013.38 1013.67 1014.07 1014.53 1014.97 1015.35 1015.62 1015.79 1015.91 1016.03 1016.19 1016.44 1016.78 1017.18 1017.60 1017.99 1018.29 1018.47 1018.56 1018.57 1018.56 1018.57 1018.63 1018.76 1018.94 1019.15 1019.34 1019.49 1019.58 1019.61 1019.62 1019.64 1019.70 1019.81 1019.99 1020.21 1020.43 1020.64 1020.80 1020.90 1020.93 1020.93
1013.07 1013.29 1013.65 1014.13 1014.65 1015.14 1015.55 1015.85 1016.04 1016.17 1016.28 1016.45 1016.69 1017.02 1017.40 1017.79 1018.14 1018.39 1018.53 1018.58 1018.58 1018.58 1018.62 1018.74 1018.93 1019.18 1019.43 1019.65 1019.80 1019.86 1019.85 1019.82 1019.80 1019.83 1019.95 1020.14 1020.40 1020.68 1020.93 1021.12 1021.24 1021.28 1021.26
1012.89 1013.16 1013.59 1014.14 1014.73 1015.30 1015.76 1016.11 1016.35 1016.50 1016.63 1016.80 1017.02 1017.32 1017.65 1017.98 1018.26 1018.45 1018.55 1018.58 1018.58 1018.60 1018.70 1018.89 1019.15 1019.46 1019.75 1019.98 1020.11 1020.12 1020.06 1019.97 1019.89 1019.90 1020.00 1020.22 1020.50 1020.82 1021.11 1021.34 1021.49 1021.54 1021.53
1012.76 1013.07 1013.55 1014.16 1014.82 1015.45 1015.98 1016.39 1016.68 1016.87 1017.03 1017.19 1017.40 1017.65 1017.93 1018.19 1018.40 1018.54 1018.60 1018.62 1018.65 1018.72 1018.88 1019.14 1019.47 1019.81 1020.12 1020.33 1020.41 1020.37 1020.25 1020.09 1019.96 1019.94 1020.03 1020.25 1020.56 1020.90 1021.23 1021.49 1021.66 1021.74 1021.75
1012.75 1013.07 1013.58 1014.23 1014.93 1015.61 1016.20 1016.67 1017.00 1017.23 1017.41 1017.58 1017.76 1017.98 1018.21 1018.42 1018.59 1018.69 1018.75 1018.79 1018.85 1018.98 1019.20 1019.50 1019.86 1020.22 1020.51 1020.68 1020.70 1020.59 1020.40 1020.19 1020.03 1019.98 1020.07 1020.30 1020.62 1020.98 1021.33 1021.61 1021.80 1021.90 1021.94
1012.88 1013.21 1013.72 1014.38 1015.09 1015.79 1016.41 1016.90 1017.26 1017.52 1017.71 1017.88 1018.06 1018.26 1018.46 1018.65 1018.80 1018.91 1018.99 1019.06 1019.17 1019.35 1019.61 1019.94 1020.30 1020.63 1020.86 1020.97 1020.92 1020.75 1020.51 1020.27 1020.09 1020.05 1020.15 1020.39 1020.72 1021.09 1021.44 1021.73 1021.93 1022.04 1022.10
1013.17 1013.49 1013.99 1014.62 1015.31 1015.99 1016.60 1017.08 1017.44 1017.70 1017.90 1018.07 1018.25 1018.45 1018.65 1018.85 1019.02 1019.16 1019.28 1019.41 1019.56 1019.78 1020.05 1020.37 1020.69 1020.95 1021.11 1021.14 1021.03 1020.81 1020.54 1020.30 1020.15 1020.13 1020.27 1020.53 1020.88 1021.25 1021.59 1021.86 1022.05 1022.16 1022.23
1013.60 1013.90 1014.36 1014.94 1015.58 1016.20 1016.74 1017.18 1017.51 1017.75 1017.94 1018.12 1018.30 1018.51 1018.74 1018.97 1019.18 1019.37 1019.55 1019.72 1019.92 1020.15 1020.41 1020.68 1020.93 1021.11 1021.18 1021.13 1020.97 1020.73 1020.48 1020.28 1020.18 1020.23 1020.42 1020.72 1021.08 1021.44 1021.76 1022.01 1022.17 1022.26 1022.32
1014.10 1014.39 1014.80 1015.31 1015.86 1016.38 1016.84 1017.20 1017.48 1017.68 1017.85 1018.02 1018.22 1018.45 1018.71 1018.97 1019.23 1019.48 1019.70 1019.92 1020.14 1020.37 1020.60 1020.81 1020.98 1021.07 1021.06 1020.95 1020.76 1020.53 1020.33 1020.20 1020.19 1020.32 1020.58 1020.93 1021.31 1021.66 1021.95 1022.16 1022.28 1022.35 1022.39
1014.64 1014.91 1015.27 1015.68 1016.12 1016.53 1016.88 1017.16 1017.36 1017.52 1017.66 1017.83 1018.03 1018.27 1018.55 1018.85 1019.15 1019.44 1019.70 1019.95 1020.18 1020.39 1020.58 1020.74 1020.84 1020.86 1020.79 1020.64 1020.46 1020.27 1020.13 1020.09 1020.18 1020.41 1020.74 1021.14 1021.54 1021.89 1022.15 1022.32 1022.40 1022.43 1022.44
1015.15 1015.40 1015.70 1016.02 1016.34 1016.63 1016.87 1017.05 1017.19 1017.30 1017.42 1017.57 1017.77 1018.02 1018.32 1018.63 1018.95 1019.25 1019.54 1019.80 1020.03 1020.23 1020.40 1020.51 1020.56 1020.54 1020.44 1020.30 1020.14 1020.00 1019.95 1020.00 1020.19 1020.51 1020.91 1021.35 1021.76 1022.10 1022.35 1022.48 1022.53 1022.53 1022.51
1015.61 1015.83 1016.05 1016.28 1016.48 1016.66 1016.81 1016.91 1016.99 1017.07 1017.18 1017.32 1017.52 1017.77 1018.05 1018.36 1018.67 1018.97 1019.26 1019.52 1019.75 1019.95 1020.11 1020.21 1020.26 1020.23 1020.15 1020.03 1019.91 1019.84 1019.86 1019.99 1020.25 1020.63 1021.07 1021.54 1021.96 1022.30 1022.52 1022.64 1022.68 1022.65 1022.62
1015.98 1016.16 1016.31 1016.44 1016.55 1016.64 1016.70 1016.76 1016.81 1016.89 1016.99 1017.14 1017.33 1017.56 1017.82 1018.10 1018.39 1018.67 1018.93 1019.19 1019.43 1019.65 1019.82 1019.95 1020.03 1020.03 1019.99 1019.92 1019.85 1019.83 1019.90 1020.08 1020.38 1020.77 1021.23 1021.70 1022.12 1022.45 1022.68 1022.80 1022.84 1022.83 1022.80
1016.27 1016.39 1016.47 1016.51 1016.54 1016.57 1016.59 1016.63 1016.69 1016.78 1016.90 1017.06 1017.24 1017.46 1017.68 1017.92 1018.16 1018.40 1018.65 1018.90 1019.15 1019.40 1019.62 1019.81 1019.94 1020.01 1020.03 1020.01 1019.99 1020.00 1020.09 1020.27 1020.56 1020.94 1021.37 1021.82 1022.22 1022.56 1022.80 1022.94 1023.01 1023.03 1023.03
1016.48 1016.54 1016.55 1016.52 1016.49 1016.48 1016.49 1016.54 1016.63 1016.76 1016.91 1017.09 1017.28 1017.47 1017.66 1017.84 1018.03 1018.23 1018.45 1018.70 1018.97 1019.26 1019.55 1019.81 1020.02 1020.17 1020.25 1020.28 1020.29 1020.31 1020.38 1020.53 1020.77 1021.09 1021.47 1021.87 1022.26 1022.59 1022.85 1023.04 1023.15 1023.23 1023.27
1016.62 1016.63 1016.58 1016.50 1016.44 1016.42 1016.44 1016.52 1016.66 1016.83 1017.03 1017.23 1017.42 1017.59 1017.74 1017.87 1018.00 1018.16 1018.35 1018.60 1018.89 1019.23 1019.58 1019.91 1020.20 1020.43 1020.57 1020.64 1020.66 1020.67 1020.70 1020.79 1020.95 1021.19 1021.50 1021.85 1022.21 1022.54 1022.83 1023.06 1023.24 1023.38 1023.50
1016.70 1016.67 1016.59 1016.49 1016.42 1016.40 1016.45 1016.57 1016.75 1016.97 1017.20 1017.42 1017.61 1017.76 1017.87 1017.95 1018.04 1018.16 1018.32 1018.56 1018.88 1019.24 1019.65 1020.04 1020.40 1020.68 1020.87 1020.97 1021.00 1020.98 1020.97 1020.98 1021.06 1021.22 1021.45 1021.74 1022.07 1022.41 1022.72 1023.01 1023.26 1023.47 1023.65
1016.73 1016.70 1016.61 1016.51 1016.44 1016.44 1016.51 1016.66 1016.87 1017.12 1017.38 1017.61 1017.79 1017.92 1017.99 1018.04 1018.09 1018.17 1018.31 1018.54 1018.86 1019.25 1019.68 1020.12 1020.51 1020.84 1021.06 1021.18 1021.20 1021.16 1021.10 1021.06 1021.06 1021.15 1021.32 1021.57 1021.87 1022.21 1022.55 1022.88 1023.19 1023.46 1023.70
1016.73 1016.72 1016.65 1016.57 1016.51 1016.52 1016.61 1016.77 1017.00 1017.26 1017.51 1017.73 1017.90 1018.01 1018.06 1018.08 1018.10 1018.15 1018.28 1018.49 1018.79 1019.18 1019.61 1020.06 1020.47 1020.81 1021.05 1021.18 1021.20 1021.16 1021.07 1020.99 1020.96 1021.00 1021.13 1021.34 1021.63 1021.97 1022.33 1022.70 1023.04 1023.36 1023.65
1016.69 1016.73 1016.70 1016.65 1016.61 1016.63 1016.72 1016.88 1017.09 1017.33 1017.57 1017.77 1017.91 1018.00 1018.03 1018.03 1018.04 1018.07 1018.18 1018.37 1018.66 1019.02 1019.43 1019.86 1020.26 1020.60 1020.84 1020.97 1021.01 1020.97 1020.89 1020.81 1020.77 1020.79 1020.91 1021.11 1021.39 1021.74 1022.11 1022.50 1022.87 1023.22 1023.54
1016.61 1016.72 1016.75 1016.73 1016.72 1016.74 1016.82 1016.95 1017.13 1017.34 1017.54 1017.70 1017.83 1017.90 1017.92 1017.92 1017.92 1017.95 1018.04 1018.21 1018.47 1018.79 1019.16 1019.55 1019.92 1020.23 1020.46 1020.60 1020.65 1020.63 1020.58 1020.53 1020.50 1020.55 1020.67 1020.88 1021.17 1021.52 1021.91 1022.31 1022.70 1023.07 1023.41
1016.50 1016.69 1016.78 1016.80 1016.81 1016.83 1016.89 1016.99 1017.13 1017.29 1017.44 1017.58 1017.68 1017.74 1017.77 1017.77 1017.78 1017.82 1017.90 1018.05 1018.27 1018.55 1018.86 1019.19 1019.51 1019.78 1019.99 1020.12 1020.19 1020.20 1020.18 1020.16 1020.18 1020.26 1020.41 1020.65 1020.96 1021.33 1021.73 1022.16 1022.57 1022.96 1023.32
1016.38 1016.64 1016.79 1016.85 1016.88 1016.90 1016.94 1017.01 1017.11 1017.23 1017.35 1017.46 1017.55 1017.60 1017.64 1017.66 1017.68 1017.73 1017.81 1017.95 1018.13 1018.35 1018.61 1018.87 1019.12 1019.34 1019.50 1019.62 1019.68 1019.71 1019.71 1019.73 1019.79 1019.90 1020.09 1020.36 1020.71 1021.12 1021.56 1022.02 1022.48 1022.91 1023.31
1016.29 1016.61 1016.80 1016.90 1016.95 1016.97 1017.00 1017.06 1017.13 1017.23 1017.33 1017.42 1017.49 1017.55 1017.60 1017.63 1017.68 1017.74 1017.82 1017.94 1018.09 1018.26 1018.45 1018.64 1018.81 1018.96 1019.06 1019.13 1019.17 1019.18 1019.19 1019.22 1019.29 1019.44 1019.66 1019.98 1020.38 1020.84 1021.35 1021.89 1022.42 1022.92 1023.39
1016.25 1016.61 1016.85 1016.98 1017.05 1017.09 1017.13 1017.19 1017.26 1017.34 1017.43 1017.51 1017.58 1017.64 1017.69 1017.74 1017.79 1017.86 1017.94 1018.04 1018.16 1018.28 1018.41 1018.52 1018.61 1018.67 1018.70 1018.69 1018.66 1018.62 1018.59 1018.60 1018.67 1018.83 1019.08 1019.44 1019.91 1020.46 1021.07 1021.71 1022.35 1022.97 1023.54
Thickness
5806 5802 5790 5789 5787 5787 5786 5784 5781 5778 5776 5773 5770 5768 5767 5765 5763 5762 5761 5759 5758 5757 5756 5755 5754 5752 5751 5749 5747 5746 5744 5743 5741 5740 5738 5737 5735 5734 5734 5733 5733 5733 5729
5808 5799 5789 5787 5785 5784 5783 5781 5779 5776 5773 5770 5768 5766 5764 5762 5761 5760 5758 5757 5756 5755 5754 5753 5752 5750 5749 5748 5746 5744 5743 5741 5739 5738 5737 5736 5734 5732 5732 5731 5732 5731 5727
5803 5795 5787 5784 5783 5781 5780 5778 5775 5773 5770 5768 5766 5764 5762 5760 5759 5757 5756 5755 5753 5752 5751 5750 5749 5748 5747 5745 5744 5742 5741 5739 5738 5737 5737 5739 5734 5730 5729 5729 5728 5726 5725
5799 5792 5787 5780 5779 5778 5777 5775 5772 5770 5767 5765 5763 5761 5759 5757 5756 5755 5754 5752 5751 5750 5749 5748 5746 5745 5744 5743 5741 5740 5739 5737 5736 5737 5740 5740 5736 5729 5727 5726 5725 5724 5723
5794 5789 5781 5777 5775 5774 5772 5771 5769 5767 5764 5762 5760 5758 5756 5754 5753 5752 5751 5750 5749 5747 5746 5745 5744 5742 5741 5740 5739 5737 5736 5735 5735 5737 5740 5739 5734 5728 5726 5724 5723 5722 5721
5790 5785 5777 5772 5770 5769 5768 5766 5764 5763 5761 5758 5756 5754 5753 5751 5750 5749 5748 5747 5746 5745 5744 5743 5741 5740 5739 5737 5736 5735 5734 5734 5734 5739 5738 5737 5734 5727 5724 5723 5722 5721 5720
5786 5781 5773 5767 5765 5764 5763 5761 5760 5758 5757 5755 5753 5751 5749 5748 5747 5746 5745 5744 5743 5742 5741 5740 5738 5737 5736 5735 5734 5733 5732 5732 5737 5738 5736 5735 5732 5726 5723 5722 5720 5719 5718
5781 5776 5767 5761 5759 5758 5757 5756 5755 5753 5752 5751 5749 5747 5746 5744 5743 5742 5741 5741 5740 5739 5738 5737 5735 5734 5733 5732 5731 5731 5730 5730 5734 5736 5734 5734 5728 5724 5722 5720 5719 5717 5716
5776 5772 5765 5760 5755 5752 5751 5750 5748 5747 5746 5745 5744 5743 5742 5741 5740 5739 5738 5737 5736 5736 5735 5734 5732 5731 5730 5730 5729 5729 5728 5729 5733 5734 5733 5731 5725 5722 5720 5719 5717 5716 5715
5769 5766 5761 5759 5755 5750 5747 5744 5742 5742 5741 5739 5738 5738 5737 5737 5736 5736 5735 5734 5733 5732 5732 5731 5730 5729 5728 5728 5727 5726 5726 5727 5733 5733 5732 5729 5724 5720 5719 5717 5716 5714 5713
5761 5759 5757 5755 5751 5749 5745 5740 5738 5736 5736 5735 5734 5733 5733 5736 5736 5734 5734 5731 5730 5729 5728 5727 5727 5726 5726 5726 5725 5724 5725 5729 5732 5731 5729 5726 5722 5719 5717 5716 5714 5713 5712
5753 5752 5752 5750 5747 5745 5741 5736 5735 5735 5733 5733 5734 5733 5733 5735 5734 5734 5730 5728 5727 5726 5725 5724 5724 5724 5724 5728 5726 5724 5728 5730 5731 5729 5727 5722 5719 5717 5716 5714 5713 5712 5711
5749 5747 5746 5744 5741 5740 5737 5734 5733 5732 5730 5730 5730 5730 5730 5731 5731 5731 5729 5727 5726 5725 5726 5724 5723 5726 5727 5728 5727 5727 5728 5729 5729 5728 5726 5720 5717 5715 5714 5713 5711 5710 5709
5744 5742 5741 5738 5735 5733 5732 5730 5728 5729 5726 5726 5725 5725 5726 5727 5727 5729 5727 5728 5727 5726 5725 5725 5724 5725 5724 5723 5724 5725 5725 5725 5725 5725 5722 5718 5715 5713 5712 5712 5710 5709 5708
5738 5735 5732 5731 5728 5726 5725 5724 5724 5723 5722 5720 5720 5720 5721 5723 5724 5724 5723 5722 5723 5723 5722 5720 5721 5720 5720 5720 5720 5721 5721 5721 5721 5720 5719 5715 5712 5711 5710 5709 5709 5708 5707
5729 5727 5726 5725 5723 5720 5718 5718 5718 5717 5715 5716 5716 5716 5716 5717 5718 5718 5717 5717 5718 5718 5718 5717 5717 5716 5716 5717 5717 5716 5717 5717 5716 5715 5715 5714 5710 5709 5708 5707 5707 5706 5705
5724 5722 5720 5719 5717 5715 5715 5714 5713 5712 5711 5712 5711 5711 5711 5712 5712 5712 5713 5712 5713 5712 5711 5711 5711 5712 5712 5713 5713 5713 5713 5712 5712 5711 5711 5710 5710 5707 5706 5705 5704 5703 5703
5719 5716 5714 5715 5712 5710 5709 5708 5708 5706 5706 5706 5706 5706 5706 5706 5706 5706 5707 5708 5707 5707 5707 5708 5708 5707 5708 5708 5708 5708 5709 5708 5707 5706 5707 5706 5706 5706 5704 5703 5701 5701 5699
5713 5711 5709 5707 5706 5705 5703 5702 5701 5698 5699 5700 5700 5701 5700 5700 5701 5702 5702 5702 5701 5702 5703 5704 5704 5703 5702 5701 5702 5703 5704 5704 5703 5703 5702 5702 5702 5701 5701 5700 5699 5697 5696
5707 5705 5704 5702 5699 5699 5698 5696 5695 5693 5693 5694 5695 5694 5694 5695 5696 5697 5697 5696 5697 5698 5698 5698 5697 5697 5697 5696 5697 5698 5699 5700 5699 5700 5699 5699 5698 5697 5697 5696 5695 5694 5693
5701 5699 5697 5695 5693 5692 5692 5691 5690 5688 5689 5689 5689 5687 5687 5689 5690 5691 5693 5692 5692 5693 5693 5693 5693 5692 5692 5692 5691 5692 5695 5695 5695 5694 5694 5694 5694 5693 5692 5691 5691 5690 5689
5694 5692 5690 5688 5687 5686 5685 5685 5683 5683 5683 5682 5681 5679 5680 5681 5683 5685 5685 5687 5687 5687 5688 5688 5687 5687 5688 5688 5686 5685 5686 5688 5689 5690 5689 5688 5688 5688 5687 5686 5686 5684 5684
5687 5685 5683 5680 5680 5679 5679 5680 5678 5677 5677 5676 5675 5675 5674 5675 5677 5678 5679 5681 5681 5683 5684 5683 5683 5681 5681 5682 5683 5681 5680 5681 5684 5684 5683 5682 5681 5681 5681 5680 5679 5678 5679
5680 5678 5676 5673 5672 5672 5672 5673 5672 5671 5669 5667 5668 5668 5668 5669 5670 5671 5673 5675 5676 5678 5678 5678 5679 5677 5677 5677 5678 5679 5679 5679 5675 5676 5676 5676 5675 5673 5672 5672 5672 5671 5671
5672 5671 5670 5667 5665 5665 5665 5665 5665 5664 5663 5663 5662 5662 5662 5663 5664 5664 5666 5668 5670 5672 5672 5672 5672 5672 5673 5673 5673 5673 5673 5673 5672 5670 5669 5668 5667 5666 5665 5664 5664 5663 5662
5666 5665 5662 5660 5658 5658 5657 5657 5656 5656 5656 5656 5656 5656 5657 5659 5659 5658 5660 5661 5663 5665 5665 5665 5665 5666 5667 5667 5668 5668 5667 5667 5667 5666 5663 5661 5659 5657 5656 5655 5655 5655 5654